Flag for USA

Past Weather in Atwater, California, USA — Yesterday and Last 2 Weeks

Now
95 °F

Sunny.


Feels Like: 91 °F
Forecast: 91 / 55 °F
Wind: 9 mph from Northwest

Location: Merced / Castle Air Force Base
Current Time: Sep 23, 2020 at 4:03:43 pm
Latest Report: Sep 23, 2020 at 2:45 pm
Visibility: 10 mi
Pressure30.01 "Hg
Humidity: 15%
Dew Point: 41 °F
Location of AtwaterLocation

Past Weather in Atwater — Graph

°F

Atwater Temperature Yesterday

Maximum temperature yesterday: 95 °F (at 3:45 pm)
Minimum temperature yesterday: 59 °F (at 6:45 am)
Average temperature yesterday: 71 °F

High & Low Weather Summary for the Past Weeks

 TemperatureHumidityPressure
High99 °F (Sep 21, 3:45 pm)100% (Sep 11, 4:55 am)30.07 "Hg (Sep 11, 4:55 am)
Low55 °F (Sep 15, 6:45 am)12% (Sep 8, 2:45 pm)29.58 "Hg (Sep 8, 4:40 pm)
Average69 °F65%29.92 "Hg
* Reported Sep 8 2:45 pm — Sep 23 2:45 pm, Atwater. Weather by CustomWeather, © 2020

Note: Actual official high and low records may vary slightly from our data, if they occured in-between our weather recording intervals... More about our weather records

Atwater Weather History for the Previous 24 Hours

Scroll right to see more
 ConditionsComfort  
Time TempWeatherWind HumidityBarometerVisibility
2:45 pm
Wed, Sep 23
95 °FSunny.9 mph15%30.01 "Hg10 mi
1:45 pm93 °FSunny.6 mph17%30.03 "Hg10 mi
12:45 pm90 °FSunny.10 mph20%30.05 "Hg10 mi
11:45 am88 °FSunny.10 mph21%30.06 "Hg10 mi
10:45 am82 °FSunny.No wind25%30.07 "Hg10 mi
9:45 am79 °FSunny.No wind28%30.07 "Hg10 mi
8:45 am70 °FSunny.No wind40%30.06 "Hg10 mi
7:45 am61 °FSunny.No wind59%30.06 "Hg10 mi
6:45 am57 °FClear.6 mph67%30.03 "Hg10 mi
6:15 am55 °FClear.No wind67%30.03 "Hg10 mi
5:55 am57 °FClear.No wind63%30.03 "Hg10 mi
5:35 am57 °FClear.No wind63%30.03 "Hg10 mi
4:55 am57 °FClear.No wind59%30.02 "Hg10 mi
4:35 am57 °FClear.No wind59%30.02 "Hg10 mi
3:55 am59 °FClear.No wind51%30.01 "Hg10 mi
3:35 am59 °FClear.No wind48%30.01 "Hg10 mi
3:15 am61 °FClear.No wind48%30.02 "Hg10 mi
2:55 am59 °FClear.No wind48%30.02 "Hg10 mi
2:35 am61 °FClear.No wind45%30.02 "Hg10 mi
1:35 am59 °FClear.N/A48%30.03 "Hg10 mi
1:15 am63 °FClear.3 mph42%30.02 "Hg10 mi
12:55 am61 °FClear.N/A48%30.03 "Hg10 mi
12:35 am63 °FClear.No wind42%30.02 "Hg10 mi
11:55 pm
Tue, Sep 22
64 °FClear.5 mph40%30.02 "Hg10 mi
11:15 pm70 °FClear.6 mph33%30.02 "Hg10 mi
10:55 pm70 °FClear.7 mph38%30.02 "Hg10 mi
10:35 pm68 °FClear.No wind40%30.02 "Hg10 mi
9:55 pm72 °FClear.9 mph36%30.01 "Hg10 mi
9:35 pm70 °FClear.8 mph33%30.01 "Hg10 mi
8:55 pm73 °FClear.10 mph29%30.00 "Hg10 mi
8:35 pm73 °FClear.8 mph29%30.00 "Hg10 mi
8:15 pm73 °FClear.9 mph33%29.99 "Hg10 mi
7:45 pm75 °FClear.8 mph31%29.98 "Hg10 mi
6:45 pm84 °FSunny.10 mph23%29.97 "Hg10 mi
4:45 pm93 °FSunny.14 mph13%29.96 "Hg6 mi
Weather by CustomWeather, © 2020

See weather overview